STARLINK-36096 (66949 NORAD) Tracking and Keplerian Element Data

This shows tracking and keplerian element data for the satellite.

Feedback or suggestion? Click here.




ElementValue
Catalog66949
NameSTARLINK-36096
Epoch Orbit319
Epoch Day354.25003472
Epoch Year2025
RAAN12.6261
Inclination53.1555
Eccentricity0.0001
Argument of Perigee94.1898
Mean Anonmoly186.5423
Mean Motion15.77068983
Decay Rate-0.01574419
L11 66949U 25286AA 25354.25003472 -.01574419 00000+0 -10837-1 0 9991
L22 66949 53.1555 12.6261 0001000 94.1898 186.5423 15.77068983 3194



Live tracking and technical data element details for STARLINK-36096 (NORAD 66949). STARLINK-36096 can be tracked NOW for your location showing map with azimuth and elevation plus other details from your city location.







IsCatalogInMostPopularTable: catalog: 66949, numindb: 9
Update: records affected: 1



GetName: 66949 STARLINK-36096

Hit Count: updated at: Tue, 10 Feb 2026 02:39:38 GMT